Starlink 5115

decayed
NORAD ID: 53989 Int'l Des: 2022-125 Owner: SPXS Country: US Constellation: starlink
LEOCIRCULAR
グループ

Starlink 5115について

説明を読み込み中...

高度履歴

Altitude vs Time

uPlot chart will show altitude changes over time

軌道要素

1 53989U 22125AB 24363.91151285 .08414335 12390-4 42754-3 0 9998
2 53989 53.1915 348.0635 0002387 161.3923 280.3064 16.42850950124059
Epoch: Dec 28, 2024 • Age: 10568 hours

現在のステータス

Position data unavailable
打ち上げ日 Oct 5, 2022
運用期間 3.4 years
落下予定日 Dec 29, 2024
タイプ internet

技術仕様

分類 Payload
質量 305.00 kg
乾燥質量 290.00 kg
総質量 305.00 kg
長さ 0.20 m
直径 2.80 m
スパン 9.00 m
形状 Box + pan
製造者 SPXS
バスタイプ Starlink
フェーズステータス Reentered
所有者/国 SPXS/US

大規模コンステレーション

Loading constellations...